STARLINK-31501, 59359

Orbit data source: Space-Track

STARLINK-31501, 59359 is a payload satellite owned by SpaceX/Seattle (US) in LEO that was launched on Sun, 31 Mar 2024 UTC via an FALCON 9 launch vehicle from the Air Force Eastern Test Range (AFETR). Payload-class satellites include a variety of spacecraft equipped with specific instruments for various scientific and technological missions. These include communications satellites like Starlink; space stations such as the ISS; scientific satellites like the Hubble; Earth observation satellites from companies like Planet Labs, Umbra, and HawkEye 360; GPS; miniature CubeSats for education and research; and military/defense satellites.

Loading next visibility...
Identifier
59359, 2024-060M
Orbit
LEO
Country
Flag of USUS
Related business
Manufacturer
SpaceX/Seattle
Mission
Operational Commercial Communications
Bus & Motor
STARLINK V2M, Unknown motor
Mass
730 kg wet, ~700 kg dry
Launch date (UTC)
2024-03-31 (2 years ago)
Launch vehicle
FALCON 9
Launch site
Air Force Eastern Test Range (AFETR)
Object type
Payload
Rocket body
Debris
Shape & HBR
Box + 2 Pan, 17.7 m
Radar Cross Section
33.884 m², Large (>1 m²)

Expand to show TLE details & history
Last TLE update: 2 days ago

TLE from 2 days ago
0 STARLINK-31501
1 59359U 24060M   26170.97754798  .00002009  00000-0  82511-4 0  9997
2 59359  43.0028  42.4357 0001229 272.8873  87.1838 15.27584136125708
Epoch: 2026-06-19T23:27Z
TLE epoch observation values (Epoch: 2026-06-19T23:27:40.145Z)
Latitude
-0.00002°
Longitude
142.31963°
Altitude
482.771 km
Speed
7.626 km/s
True Right ascension
02h 49m 44s
True Declination
0° 00' 00"
Sunlit
Object was in daylight at epoch
Visualization orbit readout
Latitude
Unknown
Longitude
Unknown
Altitude
Unknown
Speed
Unknown
Apparent Right ascension
Unknown
Apparent Declination
Unknown
Sunlit
N/A
Visualization observer readout
Local Sidereal Time
21:37:56
Azimuth
Unknown
Elevation
Unknown
Doppler factor
Unknown
Orbital elements
Apogee altitude
485.825 km
Perigee altitude
484.138 km
Semi-major axis
6,863.118 km
Eccentricity
0.00012
Inclination
43.0028°
RAAN
42.4357°
Arg. of periapsis
272.8873°
True anomaly
87.19787°
Mean anomaly
87.1838°
Eccentric anomaly
87.19083°
Mean motion
3.81734 °/min
Orbital period
94.31 mins
BSTAR
0.000082511
Loading maneuver chart data...
Computing Atmospheric mass density...
Loading historical data...
Loading historical data...
Loading historical data...
Loading historical data...
Loading historical data...
Loading historical data...
Loading historical data...

Documentation

Showing up to 5 results
|